[[{"header":{"parameterUnit":"m.s-1","parameterCategory":1,"la1":30.2992,"la2":30.254,"lo1":-89.0895,"lo2":-89.0443,"dy":0.0025,"dx":0.0025,"nx":19,"ny":19,"refTime":"2026-03-17T09:00:00:Z","depth":0,"parameterNumber":2,"parameterNumberName":"U-component_of_WINDS"},"data":[0,0,0,-2.1575,-2.1578,-2.1734,-2.1734,-2.1934,-2.1936,0,0,0,0,0,0,0,0,0,0,0,-2.153,-2.1531,-2.1574,-2.1578,-2.1734,-2.1734,-2.1934,-2.1936,0,0,0,0,0,0,0,0,0,0,0,-2.1529,-2.1531,-2.1532,-2.1579,-2.1733,-2.1734,-2.1934,-2.1816,0,0,0,0,0,0,0,0,0,0,-2.1665,-2.1624,-2.153,-2.1532,-2.158,-2.1733,-2.1734,-2.181,-2.1823,-2.1865,0,-2.1902,0,-2.1922,-2.195,-2.195,0,0,0,-2.1578,-2.1613,-2.1654,-2.1533,-2.1581,-2.1733,-2.1663,-2.1817,-2.1832,-2.1882,-2.1905,-2.1912,-2.1926,-2.1951,-2.1952,-2.2193,-2.2194,0,0,-2.1569,-2.1558,-2.1644,-2.1664,-2.164,-2.1658,-2.1668,-2.1826,-2.185,-2.1905,-2.1917,-2.1929,-2.1952,-2.1954,-2.2192,-2.2193,0,0,0,-2.1545,-2.1552,-2.1589,-2.1656,-2.1683,-2.1663,-2.1674,-2.1843,-2.1856,-2.1919,-2.1931,-2.1954,-2.1956,-2.219,-2.2192,-2.2238,0,0,0,-2.154,-2.1538,-2.1586,-2.1581,-2.1681,-2.1766,-2.1688,-2.1845,-2.1864,-2.193,-2.1954,-2.1958,-2.2189,-2.2191,-2.2234,-2.2262,0,0,0,-2.1519,-2.1536,-2.1559,-2.158,-2.1646,-2.1763,-2.1785,-2.185,-2.1871,-2.1951,-2.1959,-2.2188,-2.2191,-2.2231,-2.2256,-2.2321,0,0,0,-2.1494,-2.1598,-2.1559,-2.168,-2.1645,-2.1791,-2.1784,-2.1894,-2.1967,-2.1955,-2.2189,-2.2192,-2.2229,-2.2252,-2.2317,-2.2374,-2.2396,0,0,-2.1619,-2.1613,-2.1684,-2.1654,-2.1804,-2.1768,-2.1925,-2.2003,-2.202,-2.2134,-2.214,-2.2235,-2.2255,-2.232,-2.2528,-2.2546,0,0,0,-2.172,-2.1772,-2.1814,-2.1883,-2.1945,-2.2,-2.2055,-2.2083,-2.218,-2.2077,-2.2277,-2.229,-2.2328,-2.2356,-2.2371,-2.2404,-2.2204,-2.2204,-2.2204,-2.1882,-2.1898,-2.2017,-2.2052,-2.212,-2.2175,-2.2231,-2.2279,-2.2277,-2.2324,-2.2357,-2.2481,-2.2513,-2.2525,-2.2559,-2.2389,-2.2389,-2.2389,-2.239,-2.2065,-2.214,-2.2134,-2.2247,-2.2264,-2.2359,-2.2416,-2.2411,-2.2502,-2.2457,-2.2492,-2.2441,-2.2544,-2.2575,-2.2393,-2.2393,-2.2392,-2.2392,-2.2391,-2.2172,-2.2211,-2.2244,-2.2345,-2.2421,-2.2453,-2.2541,-2.2553,-2.2565,-2.26,-2.2636,-2.2635,-2.2636,-2.2616,-2.2617,-2.2617,-2.2618,-2.2618,-2.2618,-2.227,-2.2306,-2.2378,-2.2451,-2.2497,-2.2558,-2.2614,-2.2659,-2.2713,-2.2715,-2.2715,-2.2707,-2.2551,-2.2511,-2.2625,-2.2624,-2.2623,-2.2622,-2.2622,-2.245,-2.2411,-2.2522,-2.2568,-2.2654,-2.2729,-2.2743,-2.2834,-2.2873,-2.2916,-2.2901,-2.2783,-2.2778,-2.2766,-2.2733,-2.2897,-2.2897,-2.2897,-2.2897,-2.2539,-2.2538,-2.2654,-2.2725,-2.2797,-2.2821,-2.2946,-2.299,-2.303,-2.3055,-2.3033,-2.2991,-2.2978,-2.298,-2.2963,-2.2933,-2.3145,-2.3145,-2.3145,-2.265,-2.2656,-2.276,-2.2797,-2.2866,-2.2924,-2.3042,-2.3125,-2.3162,-2.3155,-2.3075,-2.3065,-2.2996,-2.2973,-2.2964,-2.2938,-2.2882,0,0]},{"header":{"parameterUnit":"m.s-1","parameterCategory":1,"la1":30.2992,"la2":30.254,"lo1":-89.0895,"lo2":-89.0443,"dy":0.0025,"dx":0.0025,"nx":19,"ny":19,"refTime":"2026-03-17T09:00:00:Z","depth":0,"parameterNumber":3,"parameterNumberName":"V-component_of_WINDS"},"data":[0,0,0,-1.6249,-1.625,-1.6301,-1.6302,-1.6369,-1.637,0,0,0,0,0,0,0,0,0,0,0,-1.6235,-1.6236,-1.6249,-1.625,-1.6301,-1.6302,-1.6369,-1.637,0,0,0,0,0,0,0,0,0,0,0,-1.6235,-1.6236,-1.6236,-1.625,-1.6301,-1.6302,-1.6369,-1.6329,0,0,0,0,0,0,0,0,0,0,-1.6279,-1.6268,-1.6236,-1.6236,-1.6251,-1.6301,-1.6302,-1.6327,-1.6332,-1.6347,0,-1.6361,0,-1.6366,-1.6374,-1.6374,0,0,0,-1.6249,-1.6265,-1.6277,-1.6237,-1.6251,-1.6301,-1.6278,-1.633,-1.6335,-1.6352,-1.6362,-1.6364,-1.6367,-1.6375,-1.6375,-1.6464,-1.6464,0,0,-1.6246,-1.6246,-1.6274,-1.628,-1.6273,-1.6276,-1.628,-1.6333,-1.6343,-1.6362,-1.6366,-1.6368,-1.6375,-1.6376,-1.6463,-1.6464,0,0,0,-1.6239,-1.6244,-1.6255,-1.6278,-1.6287,-1.6278,-1.6282,-1.634,-1.6344,-1.6366,-1.6369,-1.6376,-1.6376,-1.6463,-1.6464,-1.6485,0,0,0,-1.6237,-1.6239,-1.6253,-1.6254,-1.6286,-1.6314,-1.6288,-1.634,-1.6346,-1.6369,-1.6376,-1.6377,-1.6462,-1.6463,-1.6484,-1.6496,0,0,0,-1.6232,-1.6239,-1.6247,-1.6253,-1.6275,-1.6313,-1.632,-1.6342,-1.6348,-1.6375,-1.6377,-1.6462,-1.6463,-1.6482,-1.6493,-1.6518,0,0,0,-1.6225,-1.6266,-1.6247,-1.6294,-1.6275,-1.6327,-1.632,-1.6358,-1.6384,-1.6376,-1.6463,-1.6464,-1.6482,-1.6492,-1.6516,-1.6538,-1.6547,0,0,-1.6277,-1.6272,-1.63,-1.6284,-1.6339,-1.6319,-1.6377,-1.6401,-1.6404,-1.6444,-1.6446,-1.6484,-1.6493,-1.6518,-1.66,-1.6608,0,0,0,-1.6316,-1.6335,-1.635,-1.6374,-1.6393,-1.6409,-1.6425,-1.6433,-1.6466,-1.6425,-1.65,-1.6506,-1.652,-1.653,-1.6537,-1.6548,-1.6469,-1.6468,-1.6468,-1.6387,-1.6388,-1.6433,-1.644,-1.6463,-1.6477,-1.6496,-1.651,-1.6506,-1.6523,-1.6535,-1.6585,-1.6597,-1.6602,-1.6614,-1.6547,-1.6547,-1.6547,-1.6547,-1.6461,-1.6489,-1.648,-1.652,-1.6521,-1.6555,-1.657,-1.6565,-1.6596,-1.6577,-1.6589,-1.6567,-1.661,-1.662,-1.6549,-1.6549,-1.6548,-1.6548,-1.6548,-1.6508,-1.6521,-1.653,-1.6563,-1.6588,-1.6594,-1.6624,-1.6624,-1.6624,-1.6636,-1.6648,-1.6648,-1.6646,-1.6642,-1.6642,-1.6642,-1.6642,-1.6643,-1.6643,-1.6552,-1.6562,-1.6587,-1.6609,-1.6623,-1.6642,-1.6655,-1.6669,-1.6685,-1.6682,-1.6682,-1.6675,-1.6614,-1.6598,-1.6645,-1.6645,-1.6645,-1.6644,-1.6644,-1.6626,-1.6609,-1.6647,-1.6662,-1.6686,-1.6711,-1.671,-1.6738,-1.6749,-1.6763,-1.6753,-1.6708,-1.6704,-1.6699,-1.6686,-1.6753,-1.6753,-1.6753,-1.6753,-1.6665,-1.6662,-1.6701,-1.6723,-1.6745,-1.6747,-1.6789,-1.68,-1.6808,-1.6815,-1.6805,-1.6788,-1.6783,-1.6782,-1.6775,-1.6763,-1.6848,-1.6848,-1.6848,-1.6709,-1.6709,-1.6745,-1.6752,-1.6771,-1.6788,-1.6827,-1.6852,-1.6858,-1.6852,-1.682,-1.6816,-1.6788,-1.6779,-1.6772,-1.6762,-1.6739,0,0]}]]